Regional Weather Roundup
Issued by NWS

Home | Current Version | Previous Version | Graphics & Text | Print | Product List | Glossary On
Versions: 1 2 3 4 5 6 7 8 9 10 11 12 13 14 15 16 17 18 19 20 21 22 23 24 25 26 27
000
ASUS43 KDMX 240907
RWRIA

WEATHER ROUNDUP FOR IOWA
NATIONAL WEATHER SERVICE DES MOINES IA
400 AM CDT FRI OCT 24 2014

NOTE: "FAIR" INDICATES FEW OR NO CLOUDS BELOW 12,000 FEET WITH NO
SIGNIFICANT WEATHER AND/OR OBSTRUCTIONS TO VISIBILITY.

* - THESE STATIONS ARE NOT NWS STATIONS...THUS NOT UNDER NWS
QUALITY CONTROL.  THEY ALSO DO NOT REPORT WEATHER SUCH
AS PRECIPITATION OR FOG.

IAZ001>003-012>014-020>022-031>034-043>046-241000-
   NORTHWEST IOWA

CITY           SKY/WX    TMP DP  RH WIND       PRES   REMARKS
CARROLL *        N/A     54  52  94 S10       29.97F
CHEROKEE *     PTCLDY    54  50  87 S8        29.92F
DENISON *      CLEAR     54  52  94 VRB7      29.94F
LE MARS *      CLEAR     57  52  82 S12       29.89F
ORANGE CITY *  CLEAR     55  48  76 S7        29.89F
SHELDON *      CLEAR     52  48  87 S12       29.88F
SIOUX CITY     PTCLDY    53  49  86 SE12      29.91F
SPENCER        MOCLDY    49  45  86 S8        29.92F
STORM LAKE *   CLEAR     52  48  87 S10       29.95F
$$

IAZ055>058-069>071-079>083-090>094-241000-
   SOUTHWEST IOWA

CITY           SKY/WX    TMP DP  RH WIND       PRES   REMARKS
AUDUBON *      CLEAR     48  43  81 S3        29.99F
CLARINDA *     FOG       59  59 100 S9        30.03F VSB 1/2
COUNCIL BLFS * CLEAR     61  61 100 SW12      29.97S
CRESTON *      FOG       57  57 100 S9        30.03S VSB 1/4
HARLAN  *      CLEAR     50  50 100 CALM      30.02F
LAMONI         FOG       58  57  97 SW7       30.04S VSB 1/4
RED OAK *      FOG       57  57 100 S3        30.01F VSB 1/4
SHENANDOAH *   CLOUDY    55  55 100 CALM      30.01F FOG
$$

IAZ047>049-059>061-072>074-084-241000-
   CENTRAL IOWA

CITY           SKY/WX    TMP DP  RH WIND       PRES   REMARKS
AMES           FOG       46  45  96 CALM      30.01F VSB 1/4
ANKENY *       FOG       52  52 100 S5        30.01F VSB 0
CHARITON *     FOG       57  57 100 SW7       30.03F VSB 1/4
DES MOINES     FOG       53  52  96 S6        30.02F VSB 1/8
GRINNELL*      FOG       48  48 100 S3        30.03F VSB 1/4
KNOXVILLE *    FOG       55  55 100 SW7       30.02S VSB 0
MARSHALLTOWN   FOG       46  46 100 S3        30.00F VSB 1/4
PELLA *        FOG       54  54 100 S3        30.04F VSB 1/4
PERRY *          N/A     48  48 100 S7        29.99F
$$

IAZ004>006-015-016-023>025-035-036-241000-
   NORTH CENTRAL IOWA

CITY           SKY/WX    TMP DP  RH WIND       PRES   REMARKS
ALGONA *       CLEAR     50  45  81 S12       29.96F
CLARION *      CLEAR     48  48 100 S8        29.99S
ESTHERVILLE    MOCLDY    46  42  86 S10       29.93F
FORT DODGE *   PTCLDY    48  43  81 CALM      29.99S
FOREST CITY *    N/A     43  43 100 CALM      29.98F FOG
IOWA FALLS *   FOG       46  45  93 S3        30.01S VSB 1/4
$$

IAZ007>011-017>019-026>030-037>042-050>054-066-241000-
   NORTHEAST IOWA

CITY           SKY/WX    TMP DP  RH WIND       PRES   REMARKS
CEDAR RAPIDS   FOG       42  42 100 SE3       30.03F VSB 1/4
CHARLES CITY * FOG       46  46 100 SE5       30.01S VSB 0
CLINTON *      CLOUDY    43  41  93 N5        30.08S VSB<1/4
DECORAH *      FOG       50  50 100 CALM      30.01F VSB 0
DUBUQUE        FOG       50  50 100 CALM      30.05F VSB 1/4
MONTICELLO *   FOG       46  46 100 CALM      30.04F VSB 1
OELWEIN *      FOG       48  48 100 SE6       30.02F VSB 0
WATERLOO       FOG       47  47 100 SE3       30.01F VSB 1/4
$$

IAZ064-065-067-068-078-241000-
   EAST CENTRAL IOWA

CITY           SKY/WX    TMP DP  RH WIND       PRES   REMARKS
DAVENPORT      CLOUDY    45  44  97 NW5       30.07R FOG
IOWA CITY      FOG       46  46 100 S3        30.06S VSB 1/2
MT. PLEASANT * DRZL/FOG  52  52 100 CALM      30.06F VSB<1/4
MUSCATINE *    FOG       48  48 100 CALM      30.07R VSB 0
QUAD CITIES    CLOUDY    44  44 100 CALM      30.06S FOG
$$

IAZ062-063-075>077-085>089-095>099-241000-
   SOUTHEAST IOWA

CITY           SKY/WX    TMP DP  RH WIND       PRES   REMARKS
BURLINGTON     CLOUDY    54  52  93 CALM      30.06S
FAIRFIELD *    CLOUDY    46  45  93 S3        30.05F
FORT MADISON * FOG       54  54 100 CALM      30.07S VSB 1/4
KEOKUK *       CLOUDY    54  54 100 W6        30.06R
OSKALOOSA *    LGT RAIN  50  50 100 SW5       30.04F VSB<1/4
CENTERVILLE *  FOG       55  55 100 SW7       30.06F VSB 3/4
OTTUMWA        FOG       51  51 100 SW3       30.04F VSB 1/4
WASHINGTON *   FOG       46  46 100 S3        30.05S VSB 0
$$

ABBREVIATIONS USED IN REMARKS
   TC - TEMPERATURES IN CELSIUS
  WCI - WIND CHILL INDEX
   HX - HEAT INDEX
  VSB - VISIBILITY
$$




USA.gov is the U.S. government's official web portal to all federal, state and local government web resources and services.